TimeAST,TemperatureF,Dew PointF,Humidity,Sea Level PressureIn,VisibilityMPH,Wind Direction,Wind SpeedMPH,Gust SpeedMPH,PrecipitationIn,Events,Conditions,WindDirDegrees,DateUTC
12:00 AM,42.8,28.4,57,30.64,9.0,North,6.9,-,N/A,,Overcast,350,2012-11-19 04:00:00
1:00 AM,42.8,30.2,61,30.63,9.0,NW,11.5,-,N/A,,Overcast,310,2012-11-19 05:00:00
2:00 AM,42,29,49,30.62,9,NW,10.4,,,,Overcast,310,2012-11-19 06:00:00
2:00 AM,42.8,28.4,57,30.62,9.0,NW,10.4,-,N/A,,Overcast,310,2012-11-19 06:00:00
3:00 AM,41.0,28.4,61,30.61,9.0,NW,10.4,-,N/A,,Overcast,310,2012-11-19 07:00:00
4:00 AM,41.0,28.4,61,30.60,9.0,NW,10.4,-,N/A,,Overcast,320,2012-11-19 08:00:00
5:00 AM,42,29,50,30.60,9,NNW,8.1,,,,Overcast,340,2012-11-19 09:00:00
5:00 AM,41.0,30.2,65,30.60,9.0,North,8.1,-,N/A,,Overcast,10,2012-11-19 09:00:00
6:00 AM,41.0,28.4,61,30.59,9.0,NNW,9.2,17.3,N/A,,Overcast,330,2012-11-19 10:00:00
7:00 AM,41.0,30.2,65,30.58,9.0,NW,5.8,-,N/A,,Overcast,320,2012-11-19 11:00:00
8:00 AM,42,32,57,30.58,9,NNW,8.1,,,,Overcast,330,2012-11-19 12:00:00
8:00 AM,42.8,32.0,66,30.58,9.0,NW,6.9,-,N/A,,Overcast,320,2012-11-19 12:00:00
9:00 AM,42.8,30.2,61,30.56,9.0,NW,11.5,17.3,N/A,,Overcast,320,2012-11-19 13:00:00
10:00 AM,42.8,30.2,61,30.54,9.0,WNW,8.1,-,N/A,,Overcast,290,2012-11-19 14:00:00
11:00 AM,44,32,50,30.54,9,WNW,6.9,,,,Overcast,300,2012-11-19 15:00:00
11:00 AM,44.6,32.0,61,30.54,9.0,WNW,8.1,-,N/A,,Overcast,290,2012-11-19 15:00:00
12:00 PM,44.6,32.0,61,30.50,9.0,NW,12.7,-,N/A,,Overcast,310,2012-11-19 16:00:00
1:00 PM,44.6,32.0,61,30.48,9.0,NW,9.2,-,N/A,,Partly Cloudy,320,2012-11-19 17:00:00
2:00 PM,44,33,53,30.45,9,WNW,9.2,,,,,300,2012-11-19 18:00:00
2:00 PM,44.6,32.0,61,30.45,9.0,WNW,8.1,-,N/A,,Scattered Clouds,290,2012-11-19 18:00:00
3:00 PM,44.6,33.8,66,30.43,9.0,NW,9.2,-,N/A,,Partly Cloudy,310,2012-11-19 19:00:00
4:00 PM,42.8,32.0,66,30.42,9.0,WNW,6.9,-,N/A,,Partly Cloudy,290,2012-11-19 20:00:00
5:00 PM,40,31,61,30.40,9,WNW,5.8,,,,,290,2012-11-19 21:00:00
5:00 PM,39.2,32.0,75,30.40,9.0,West,6.9,-,N/A,,Clear,280,2012-11-19 21:00:00
6:00 PM,39.2,30.2,70,30.40,9.0,West,6.9,-,N/A,,Clear,280,2012-11-19 22:00:00
6:57 PM,41.0,32.0,70,30.38,9.0,West,6.9,-,N/A,,Mostly Cloudy,280,2012-11-19 22:57:00
7:00 PM,41.0,32.0,70,30.38,9.0,West,5.8,-,N/A,,Mostly Cloudy,280,2012-11-19 23:00:00
8:00 PM,42,32,58,30.37,9,West,8.1,,,,,270,2012-11-20 00:00:00
8:00 PM,42.8,32.0,66,30.37,9.0,West,6.9,-,N/A,,Mostly Cloudy,270,2012-11-20 00:00:00
8:20 PM,42.8,32.0,66,30.36,9.0,West,6.9,-,N/A,,Mostly Cloudy,280,2012-11-20 00:20:00
9:00 PM,42.8,32.0,66,30.35,9.0,West,8.1,-,N/A,,Overcast,270,2012-11-20 01:00:00
10:00 PM,42.8,32.0,66,30.33,9.0,West,6.9,-,N/A,,Overcast,270,2012-11-20 02:00:00
11:00 PM,43,31,52,30.30,9,West,6.9,,,,,280,2012-11-20 03:00:00
11:00 PM,42.8,32.0,66,30.30,9.0,West,8.1,-,N/A,,Mostly Cloudy,280,2012-11-20 03:00:00